| time (UTC) | temp F | wind direction | speed knots | gust knots | rain 1hr in | rain 24hr in | rain mn in | humidity % | barometer mb |
| 20260506102521 | 52 | 224 | 10.4 | 16.5 | 0.00 | 0.00 | 0.00 | 87 | 1014.7 |
| 20260506101544 | 51 | 227 | 10.4 | 14.8 | 0.00 | 0.00 | 0.00 | 88 | 1014.6 |
| 20260506100525 | 51 | 213 | 11.3 | 15.6 | 0.00 | 0.00 | 0.00 | 87 | 1014.6 |
| 20260506095527 | 51 | 210 | 10.4 | 15.6 | 0.00 | 0.00 | 0.00 | 88 | 1014.5 |
| 20260506093336 | 51 | 220 | 8.7 | 13.0 | 0.00 | 0.00 | 0.00 | 88 | 1014.4 |
| 20260506092301 | 51 | 196 | 7.8 | 15.6 | 0.00 | 0.00 | 0.00 | 88 | 1014.3 |
| 20260506090131 | 52 | 222 | 7.8 | 12.2 | 0.00 | 0.00 | 0.00 | 88 | 1014.1 |
| 20260506085056 | 52 | 199 | 7.8 | 12.2 | 0.00 | 0.00 | 0.00 | 87 | 1014.1 |
| 20260506084116 | 52 | 196 | 7.0 | 11.3 | 0.00 | 0.00 | 0.00 | 87 | 1014.1 |
| 20260506083131 | 52 | 222 | 7.8 | 13.9 | 0.00 | 0.00 | 0.00 | 86 | 1014.0 |
| 20260506082105 | 52 | 227 | 7.8 | 13.9 | 0.00 | 0.00 | 0.00 | 87 | 1014.0 |
| 20260506081031 | 52 | 214 | 7.8 | 13.0 | 0.00 | 0.00 | 0.00 | 87 | 1014.0 |
| 20260506073030 | 53 | 227 | 7.0 | 12.2 | 0.00 | 0.00 | 0.00 | 87 | 1013.5 |
| 20260506070855 | 52 | 225 | 6.1 | 11.3 | 0.00 | 0.00 | 0.00 | 88 | 1013.6 |
| 20260506061657 | 53 | 202 | 5.2 | 9.6 | 0.00 | 0.00 | 0.00 | 87 | 1013.4 |
| 20260506060625 | 53 | 199 | 4.3 | 9.6 | 0.00 | 0.00 | 0.00 | 87 | 1013.3 |
| 20260506051343 | 54 | 231 | 5.2 | 11.3 | 0.00 | 0.00 | 0.00 | 86 | 1013.2 |
| 20260506050315 | 54 | 224 | 6.1 | 11.3 | 0.00 | 0.00 | 0.00 | 86 | 1013.0 |
| 20260506044332 | 54 | 203 | 5.2 | 10.4 | 0.00 | 0.00 | 0.00 | 85 | 1012.8 |
| 20260506041009 | 55 | 201 | 6.1 | 10.4 | 0.00 | 0.00 | 0.00 | 84 | 1012.5 |
| 20260506035958 | 55 | 186 | 6.1 | 9.6 | 0.00 | 0.00 | 0.00 | 84 | 1012.4 |
| 20260506034949 | 55 | 191 | 7.0 | 11.3 | 0.00 | 0.00 | 0.00 | 83 | 1012.3 |
| 20260506033916 | 55 | 193 | 6.1 | 9.6 | 0.00 | 0.00 | 0.00 | 83 | 1012.1 |
| 20260506032930 | 56 | 196 | 6.1 | 11.3 | 0.00 | 0.00 | 0.00 | 82 | 1012.1 |
| 20260506025725 | 57 | 184 | 8.7 | 13.9 | 0.00 | 0.00 | 0.00 | 80 | 1012.0 |
| 20260506024653 | 58 | 164 | 8.7 | 13.9 | 0.00 | 0.00 | 0.00 | 79 | 1012.0 |
| 20260506022527 | 58 | 157 | 4.3 | 10.4 | 0.00 | 0.00 | 0.00 | 78 | 1012.0 |
| 20260506021528 | 59 | 196 | 4.3 | 9.6 | 0.00 | 0.00 | 0.00 | 77 | 1012.1 |
| 20260506020524 | 59 | 197 | 3.5 | 8.7 | 0.00 | 0.00 | 0.00 | 76 | 1012.1 |
| 20260506015527 | 60 | 138 | 4.3 | 12.2 | 0.00 | 0.00 | 0.00 | 77 | 1012.1 |
| 20260506014540 | 60 | 213 | 3.5 | 12.2 | 0.00 | 0.00 | 0.00 | 75 | 1012.2 |
| 20260506013602 | 60 | 161 | 3.5 | 9.6 | 0.00 | 0.00 | 0.00 | 76 | 1012.1 |
| 20260506012613 | 60 | 147 | 4.3 | 7.8 | 0.00 | 0.00 | 0.00 | 76 | 1012.3 |
| 20260506011614 | 61 | 151 | 4.3 | 12.2 | 0.00 | 0.00 | 0.00 | 75 | 1012.2 |
| 20260506010554 | 60 | 180 | 7.8 | 13.0 | 0.00 | 0.00 | 0.00 | 76 | 1012.3 |
| 20260506005535 | 61 | 175 | 8.7 | 13.0 | 0.00 | 0.00 | 0.00 | 76 | 1012.3 |
| 20260506004502 | 60 | 203 | 7.8 | 14.8 | 0.00 | 0.00 | 0.00 | 76 | 1012.3 |
| 20260506003430 | 60 | 209 | 8.7 | 14.8 | 0.00 | 0.00 | 0.00 | 76 | 1012.4 |
| 20260506001257 | 60 | 181 | 7.8 | 13.9 | 0.00 | 0.00 | 0.00 | 77 | 1012.4 |
| 20260506000234 | 59 | 221 | 9.6 | 13.0 | 0.00 | 0.00 | 0.00 | 79 | 1012.6 |
| 20260505235213 | 59 | 195 | 8.7 | 12.2 | 0.00 | 0.00 | 0.00 | 78 | 1012.8 |
| 20260505234208 | 60 | 200 | 9.6 | 14.8 | 0.00 | 0.00 | 0.00 | 78 | 1012.8 |
| 20260505233136 | 59 | 236 | 9.6 | 15.6 | 0.00 | 0.00 | 0.00 | 77 | 1012.9 |
| 20260505232144 | 60 | 197 | 9.6 | 15.6 | 0.00 | 0.00 | 0.00 | 76 | 1013.1 |
| 20260505231200 | 60 | 235 | 9.6 | 14.8 | 0.00 | 0.00 | 0.00 | 77 | 1013.2 |
| 20260505230202 | 59 | 215 | 8.7 | 13.9 | 0.00 | 0.00 | 0.00 | 78 | 1013.1 |
| 20260505225147 | 59 | 213 | 8.7 | 12.2 | 0.00 | 0.00 | 0.00 | 80 | 1013.3 |
| 20260505224117 | 60 | 201 | 7.8 | 13.9 | 0.00 | 0.00 | 0.00 | 78 | 1013.4 |
| 20260505223054 | 59 | 196 | 7.8 | 13.9 | 0.00 | 0.00 | 0.00 | 79 | 1013.4 |
| 20260505222020 | 60 | 219 | 7.0 | 13.9 | 0.00 | 0.00 | 0.00 | 79 | 1013.5 |
| 20260505221035 | 59 | 238 | 7.8 | 13.9 | 0.00 | 0.00 | 0.00 | 80 | 1013.5 |
| 20260505220051 | 59 | 205 | 7.0 | 10.4 | 0.00 | 0.00 | 0.00 | 80 | 1013.5 |
| 20260505215035 | 59 | 196 | 7.8 | 10.4 | 0.00 | 0.00 | 0.00 | 80 | 1013.6 |
| 20260505214037 | 59 | 198 | 7.0 | 13.0 | 0.00 | 0.00 | 0.00 | 81 | 1013.7 |
| 20260505213017 | 59 | 217 | 7.0 | 13.0 | 0.00 | 0.00 | 0.00 | 82 | 1013.6 |
| 20260505212025 | 58 | 189 | 6.1 | 13.0 | 0.00 | 0.00 | 0.00 | 83 | 1013.7 |
| 20260505211001 | 57 | 194 | 7.0 | 12.2 | 0.00 | 0.00 | 0.00 | 84 | 1013.7 |
| 20260505205933 | 58 | 205 | 7.0 | 12.2 | 0.00 | 0.00 | 0.00 | 83 | 1013.8 |
| 20260505204901 | 58 | 200 | 5.2 | 9.6 | 0.00 | 0.00 | 0.00 | 83 | 1013.8 |
| 20260505203917 | 57 | 218 | 7.0 | 11.3 | 0.00 | 0.00 | 0.00 | 86 | 1014.0 |
| 20260505201809 | 57 | 199 | 5.2 | 9.6 | 0.00 | 0.00 | 0.00 | 86 | 1013.8 |
| 20260505200814 | 56 | 225 | 6.1 | 8.7 | 0.00 | 0.00 | 0.00 | 86 | 1013.9 |
| 20260505195813 | 56 | 206 | 5.2 | 10.4 | 0.00 | 0.00 | 0.00 | 88 | 1013.8 |
| 20260505194800 | 56 | 208 | 5.2 | 10.4 | 0.00 | 0.00 | 0.00 | 86 | 1013.9 |
| 20260505193739 | 56 | 198 | 5.2 | 9.6 | 0.00 | 0.00 | 0.00 | 87 | 1013.9 |
| 20260505192736 | 55 | 188 | 6.1 | 11.3 | 0.00 | 0.00 | 0.00 | 87 | 1013.9 |
| 20260505190600 | 55 | 198 | 5.2 | 8.7 | 0.00 | 0.00 | 0.00 | 88 | 1014.0 |
| 20260505185621 | 55 | 209 | 4.3 | 8.7 | 0.00 | 0.00 | 0.00 | 88 | 1013.9 |
| 20260505183519 | 54 | 221 | 4.3 | 8.7 | 0.00 | 0.00 | 0.00 | 90 | 1013.8 |
| 20260505182533 | 54 | 226 | 4.3 | 7.0 | 0.00 | 0.00 | 0.00 | 90 | 1013.8 |
| 20260505181526 | 54 | 229 | 4.3 | 7.8 | 0.00 | 0.00 | 0.00 | 91 | 1013.8 |
| 20260505175404 | 54 | 245 | 4.3 | 7.8 | 0.00 | 0.00 | 0.00 | 90 | 1013.8 |
| 20260505174422 | 54 | 208 | 4.3 | 7.8 | 0.00 | 0.00 | 0.00 | 90 | 1013.8 |
| 20260505172337 | 54 | 186 | 4.3 | 7.8 | 0.00 | 0.00 | 0.00 | 91 | 1013.6 |
| 20260505171304 | 54 | 188 | 5.2 | 7.8 | 0.00 | 0.00 | 0.00 | 91 | 1013.5 |
| 20260505170244 | 54 | 207 | 5.2 | 8.7 | 0.00 | 0.00 | 0.00 | 90 | 1013.5 |
| 20260505165210 | 54 | 212 | 4.3 | 9.6 | 0.00 | 0.00 | 0.00 | 90 | 1013.5 |
| 20260505164221 | 54 | 182 | 5.2 | 9.6 | 0.00 | 0.00 | 0.00 | 89 | 1013.5 |
| 20260505163206 | 54 | 196 | 4.3 | 7.0 | 0.00 | 0.00 | 0.00 | 89 | 1013.4 |
| 20260505162144 | 54 | 179 | 3.5 | 7.0 | 0.00 | 0.00 | 0.00 | 89 | 1013.4 |
| 20260505161157 | 54 | 240 | 4.3 | 7.8 | 0.00 | 0.00 | 0.00 | 89 | 1013.4 |
| 20260505152818 | 53 | 222 | 6.1 | 9.6 | 0.00 | 0.00 | 0.00 | 89 | 1013.2 |
| 20260505151815 | 53 | 234 | 4.3 | 7.8 | 0.00 | 0.00 | 0.00 | 90 | 1013.1 |
| 20260505150753 | 53 | 196 | 5.2 | 9.6 | 0.00 | 0.00 | 0.00 | 90 | 1013.1 |
| 20260505130227 | 51 | 192 | 5.2 | 8.7 | 0.00 | 0.00 | 0.00 | 92 | 1011.6 |
| 20260505124039 | 50 | 178 | 4.3 | 7.0 | 0.00 | 0.00 | 0.00 | 92 | 1011.3 |
| 20260505123031 | 50 | 184 | 4.3 | 7.8 | 0.00 | 0.00 | 0.00 | 91 | 1011.2 |
| 20260505122018 | 51 | 190 | 5.2 | 7.8 | 0.00 | 0.00 | 0.00 | 90 | 1011.1 |
| 20260505120956 | 51 | 179 | 3.5 | 8.7 | 0.00 | 0.00 | 0.00 | 89 | 1011.1 |
| 20260505115958 | 51 | 182 | 4.3 | 8.7 | 0.00 | 0.00 | 0.00 | 89 | 1010.9 |
| 20260505115023 | 51 | 157 | 3.5 | 8.7 | 0.00 | 0.00 | 0.00 | 89 | 1011.0 |
| 20260505113955 | 51 | 183 | 2.6 | 8.7 | 0.00 | 0.00 | 0.00 | 88 | 1010.7 |
| 20260505111809 | 52 | 151 | 1.7 | 5.2 | 0.00 | 0.00 | 0.00 | 87 | 1010.6 |
| 20260505110757 | 52 | 157 | 0.9 | 3.5 | 0.00 | 0.00 | 0.00 | 86 | 1010.4 |